Regional Weather Roundup
Issued by NWS

Home | Current Version | Previous Version | Graphics & Text | Print | Product List | Glossary On
Versions: 1 2 3 4 5 6 7 8 9 10 11 12 13 14 15 16 17 18 19 20 21 22 23 24 25 26 27 28 29 30 31 32 33 34 35 36 37 38 39 40 41 42 43 44 45 46 47 48 49 50
000
ASUS43 KMKX 282221
RWRWI

WISCONSIN REGIONAL WEATHER ROUNDUP
NATIONAL WEATHER SERVICE MILWAUKEE/SULLIVAN WI
500 PM CDT THU APR 28 2016

NOTE: "FAIR" INDICATES FEW OR NO CLOUDS BELOW 12,000 FEET WITH NO
SIGNIFICANT WEATHER AND/OR OBSTRUCTIONS TO VISIBILITY.

WIZ001-002-006>008-014>016-023>028-282300-
NORTHWEST WISCONSIN

CITY           SKY/WX    TMP DP  RH WIND       PRES   REMARKS
SUPERIOR ARPT  CLOUDY    40  32  71 NE12G18   30.12S WCI  33
ASHLAND        MOSUNNY   44  29  55 NE17G24   30.12R
HAYWARD        CLOUDY    46  29  51 NE13      30.06R
SIREN          CLOUDY    52  26  35 E8        30.03S
CUMBERLAND     CLOUDY    50  30  46 NE5       30.01S
RICE LAKE      CLOUDY    46  33  59 S8        30.03R
CHETEK         CLOUDY    45  33  63 SW6       30.03R
LADYSMITH      CLOUDY    53  21  29 CALM      30.03S
EAU CLAIRE     LGT RAIN  43  36  76 E12G18    30.03R
MENOMONIE      CLOUDY    42  42  99 E9        30.04S
NEW RICHMOND   CLOUDY    43  34  71 CALM      30.04R
OSCEOLA        DRIZZLE   46  37  72 SW6       30.06R
$$

WIZ003>005-009-010-017-018-282300-
NORTH CENTRAL WISCONSIN

CITY           SKY/WX    TMP DP  RH WIND       PRES   REMARKS
MANITOWISH WTR CLOUDY    51  21  31 SE3       30.01S
ARBOR VITAE    MOSUNNY   57  21  25 SE7       30.00S
WOODRUFF       MOSUNNY   57  21  25 SE7       30.00S
RHINELANDER    CLOUDY    55  22  27 SE9       30.00F
EAGLE RIVER    MOSUNNY   56  19  23 E8        30.00S
LAND O LAKES   MOSUNNY   56  20  25 E8        30.02S
PHILLIPS       CLOUDY    55  23  28 N5        29.99S
TOMAHAWK       CLOUDY    51  20  29 E3        30.01S
MEDFORD        CLOUDY    41  34  76 S8        30.02R
MERRILL        CLOUDY    49  28  43 S8        30.02R
$$

WIZ029-030-035-036-043>047-282300-
CENTRAL WISCONSIN

CITY           SKY/WX    TMP DP  RH WIND       PRES   REMARKS
WAUSAU         LGT RAIN  43  34  70 VRB3      30.01F
MOSINEE        LGT RAIN  39  36  87 NE7       30.03F WCI  34
MARSHFIELD     LGT RAIN  39  34  82 E12       30.02R WCI  32
STEVENS POINT  CLOUDY    39  34  81 E5        30.03R
WAUPACA        CLOUDY    45  34  66 N3        30.02S
WAUTOMA        LGT RAIN  40  35  83 NE8       30.02  WCI  34
WISC RAPIDS    LGT RAIN  40  35  83 E6        30.03R
CAMP DOUGLAS   CLOUDY    41  41 100 E9        30.00R
$$

WIZ011>013-019>022-031-037>040-048>050-282300-
NORTHEAST WISCONSIN

CITY           SKY/WX    TMP DP  RH WIND       PRES   REMARKS
ANTIGO         CLOUDY    46  27  47 SE10G16   30.02S
SHAWANO        CLOUDY    44  35  69 NE10      30.05S
OCONTO         CLOUDY    43  31  64 NE10      30.05S
STURGEON BAY   CLOUDY    43  28  56 NE7       30.07S
GREEN BAY      CLOUDY    45  31  58 E14       30.03S
MANITOWOC      CLOUDY    41  36  82 E15       30.03S
APPLETON       CLOUDY    45  28  53 NE13G20   29.99F
CLINTONVILLE   CLOUDY    45  30  57 NE9G16    30.02F
OSHKOSH        CLOUDY    45  29  53 NE10      30.00R
$$

WIZ032>034-041-042-053>061-282300-
SOUTHWEST WISCONSIN

CITY           SKY/WX    TMP DP  RH WIND       PRES   REMARKS
LA CROSSE      CLOUDY    43  38  82 E7        30.00R
SPARTA         CLOUDY    40  40  97 E8        30.01R FOG
VIROQUA        CLOUDY    40  39  99 E8        29.97S WCI  34
BOSCOBEL       CLOUDY    45  38  76 E9        29.97S
PRAIRIE DU CHI CLOUDY    44  38  79 NE8       29.97R
PLATTEVILLE    CLOUDY    44  42  92 NE10      29.95R
$$

WIZ056-057-062-063-064-067-068-282300-
SOUTH CENTRAL WISCONSIN

CITY           SKY/WX    TMP DP  RH WIND       PRES   REMARKS
REEDSBURG      CLOUDY    40  38  96 E8        29.99R WCI  34
BARABOO/DELLS  CLOUDY    39  38  93 E8        29.98R FOG     WCI  34
LONE ROCK      LGT RAIN  42  39  89 E12       29.98S FOG
MINERAL POINT  CLOUDY    43  39  87 NE12      29.95R
MADISON        DRIZZLE   40  37  89 E9        29.98R FOG     WCI  34
MIDDLETON      CLOUDY    42  38  88 E10       29.98R
WATERTOWN      CLOUDY    39  38  93 E12G18    29.98S WCI  32
MONROE         CLOUDY    43  39  87 NE15      29.95R
JANESVILLE     CLOUDY    45  39  81 E15       29.95R
$$

WIZ051-052-058>065-066-070>072-282300-
SOUTHEAST WISCONSIN

CITY           SKY/WX    TMP DP  RH WIND       PRES   REMARKS
MILWAUKEE      CLOUDY    41  37  86 NE12G24   29.99R
WAUKESHA       CLOUDY    37  36  93 E13G21    29.99R FOG     WCI  29
MILWAUKEE/TIMM CLOUDY    39  34  81 E12       30.00R WCI  32
RACINE         CLOUDY    40  37  89 E14       29.99R FOG     WCI  32
BURLINGTON     CLOUDY    38  37  97 E7G17     29.97R FOG     WCI  33
KENOSHA        CLOUDY    40  38  93 NE12      29.97S FOG     WCI  33
FOND DU LAC    CLOUDY    43  30  60 E9        30.01R
SHEBOYGAN      CLOUDY    39  35  86 NE15      30.02R WCI  31
WEST BEND      CLOUDY    39  34  81 E14G21    30.00R WCI  31
JUNEAU         CLOUDY    39  36  89 E14       29.99F WCI  31
$$

LSZ147-162-282300-
LAKE SUPERIOR

STATION/POSITION TIME  TEMP    WIND        PRES    WAVE
                       AIR SEA DIR/SP/G            HT/PER
                 (UTC) (F)     (DEG/KT/KT) (MB)    (FT/S)
W MID LAKE BUOY  2150   38 36   60/ 16/ 17 1020.7F   4/ 6
DEVILS ISLAND    2200   38      80/ 16/ 17 1020.8S
SAXON HARBOR     2100   38      30/ 12/ 15 1019.3S
$$

LMZ867-665-643>646-282300-
LAKE MICHIGAN

STATION/POSITION TIME  TEMP    WIND        PRES    WAVE
                       AIR SEA DIR/SP/G            HT/PER
                 (UTC) (F)     (DEG/KT/KT) (MB)    (FT/S)
CHAMBERS ISLAND  2140   42      30/  9/ 11 1017.9S
N MID LAKE BUOY  2150   40 39   50/ 10/ 12 1018.1R   2/ 4
NORTHPORT PIER   2100   41      60/  9/ 12 1017.9F
ALGOMA LAKESHORE 2100           70/ 16/ 19   N/A
KEWAUNEE LAKESHO 2100   42      30/  7/ 11 1016.5F
SHEBOYGAN LAKESH 2200   39      60/ 18/ 19 1017.2R
PORT WASHINGTON  2100   42      60/ 15/ 19 1016.3F
S MID LAKE BUOY  2150   40 40   60/ 12/ 14 1014.4R   3/ 4
KENOSHA   LAKESH 2200   39      50/ 15/ 17 1014.9R
$$

TC  - TEMPERATURE IN CELSIUS
VSB - VISIBILITY IN STATUTE MILES
WCI - WIND CHILL INDEX
HX  - HEAT INDEX





USA.gov is the U.S. government's official web portal to all federal, state and local government web resources and services.